OneWeb SL0223

operational
NORAD ID: 48768 Int'l Des: 2021-045 Owner: ONEWEBN Country: UK Constellation: oneweb
LEOCIRCULARPOLARONEWEB_TYPE

About OneWeb SL0223

Description loading...

Live Position

Loading 3D Globe...

Upcoming Passes

Altitude History

Altitude vs Time

uPlot chart will show altitude changes over time

Two-Line Element Set

1 48768U 21045B 26036.76620535 .00000089 00000-0 20173-3 0 9999
2 48768 87.8993 285.4228 0001106 89.8624 270.2633 13.15548468227127
Epoch: Feb 5, 2026 • Age: 13 hours

Current Status

Altitude 1214.8 km
Velocity 7.25 km/s
Sub-Earth Point 87.46°N, 90.02°E
Launch Date May 28, 2021
Age 4.6 years
Type internet

Technical Details

Classification Payload
Mass 148.00 kg
Dry Mass 140.00 kg
Total Mass 148.00 kg
Length 1.30 m
Diameter 1.00 m
Span 5.00 m
Shape Trapezoid+2 pan
Manufacturer ONEWUS
Bus Type ARROW
Phase Status In Orbit
Owner/State ONEWEBN/UK

Large Constellations

Loading constellations...